Gustavus, AK

11:41 PM AKDT on September 23, 2017 (GMT -0800)
Gustavus

Weather History for PAGS - April, 2014

Change the Weather History Date:

Tuesday, April 8, 2014

  Actual Average Record
Temperature  
Mean Temperature - -  
Max Temperature - 46 °F 59 °F (1966)
Min Temperature - 32 °F 19 °F (1989)
Moisture  
Dew Point -    
Average Humidity    
Maximum Humidity    
Minimum Humidity    
Precipitation  
Precipitation 0.00 in - - ()
Sea Level Pressure  
Sea Level Pressure 29.59 in    
Wind  
Wind Speed 4 mph (SSE)    
Max Wind Speed 12 mph    
Max Gust Speed 17 mph    
Visibility 9 miles    
Events      
Averages and records for this station are not official NWS values.
T = Trace of Precipitation, MM = Missing Value Source: NWS Daily Summary

Daily Weather History Graph

Daily Weather History Graph

Search for Another Location

Airport or City:

Trip Planner

Search our weather history database for the weather conditions in past years. The results will help you decide how hot, cold, wet, or windy it might be!

Date:

Astronomy

Apr. 08, 2014 Rise Set
Actual Time 6:09 AM AKDT 8:00 PM AKDT
Civil Twilight 5:27 AM AKDT 8:42 PM AKDT
Nautical Twilight 4:34 AM AKDT 9:36 PM AKDT
Astronomical Twilight 3:31 AM AKDT 10:41 PM AKDT
Moon 12:46 PM AKDT (4/8) 3:44 AM AKDT (4/8)
Length of Visible Light 15h 15m
Length of Day
13h 50m
Waxing Gibbous, 64% of the Moon is Illuminated
Apr 8
Waxing Gibbous
Apr 14
Full
Apr 21
Last Quarter
Apr 28
New
May 6
First Quarter

Hourly Weather History & Observations

Time (AKDT) Temp. Dew Point Humidity Pressure Visibility Wind Dir Wind Speed Gust Speed Precip Events Conditions
12:16 AM - - N/A% 29.42 in 9.0 mi ESE 3.5 mph - N/A   Overcast
12:36 AM - - N/A% 29.42 in 10.0 mi ENE 3.5 mph - N/A   Overcast
12:56 AM - - N/A% 29.42 in 10.0 mi Calm Calm - N/A   Overcast
1:16 AM - - N/A% 29.43 in 10.0 mi SW 3.5 mph - N/A   Overcast
1:36 AM - - N/A% 29.43 in 10.0 mi ESE 3.5 mph - N/A   Overcast
1:56 AM - - N/A% 29.43 in 10.0 mi Calm Calm - N/A   Overcast
2:16 AM - - N/A% 29.44 in 10.0 mi Calm Calm - N/A   Overcast
2:36 AM - - N/A% 29.44 in 10.0 mi ESE 5.8 mph - N/A   Overcast
2:56 AM - - N/A% 29.45 in 10.0 mi Calm Calm - N/A   Overcast
3:16 AM - - N/A% 29.46 in 9.0 mi West 3.5 mph - N/A   Overcast
3:36 AM - - N/A% 29.46 in 6.0 mi Calm Calm - N/A   Overcast
3:56 AM - - N/A% 29.46 in 10.0 mi East 4.6 mph - N/A   Overcast
4:16 AM - - N/A% 29.47 in 10.0 mi Calm Calm - N/A   Overcast
4:36 AM - - N/A% 29.48 in 10.0 mi Calm Calm - N/A   Overcast
4:56 AM - - N/A% 29.48 in 10.0 mi Calm Calm - N/A   Overcast
5:16 AM - - N/A% 29.49 in 10.0 mi Calm Calm - N/A   Overcast
5:36 AM - - N/A% 29.49 in 9.0 mi Calm Calm - N/A   Overcast
5:56 AM - - N/A% 29.51 in 10.0 mi Calm Calm - N/A   Overcast
6:16 AM - - N/A% 29.51 in 10.0 mi SW 6.9 mph - N/A   Overcast
6:36 AM - - N/A% 29.52 in 10.0 mi SSW 5.8 mph - N/A   Overcast
6:56 AM - - N/A% 29.53 in 10.0 mi East 5.8 mph - N/A   Overcast
7:16 AM - - N/A% 29.54 in 10.0 mi ESE 4.6 mph - N/A   Mostly Cloudy
7:36 AM - - N/A% 29.55 in 10.0 mi ESE 9.2 mph - N/A   Mostly Cloudy
7:56 AM - - N/A% 29.56 in 10.0 mi East 8.1 mph - N/A   Mostly Cloudy
8:16 AM - - N/A% 29.57 in 10.0 mi Calm Calm - N/A   Mostly Cloudy
8:36 AM - - N/A% 29.57 in 10.0 mi SE 5.8 mph - N/A   Overcast
8:56 AM - - N/A% 29.57 in 10.0 mi SE 4.6 mph - N/A   Overcast
9:16 AM - - N/A% 29.59 in 10.0 mi South 6.9 mph - N/A   Overcast
9:36 AM - - N/A% 29.59 in 10.0 mi South 5.8 mph - N/A   Overcast
9:56 AM - - N/A% 29.60 in 10.0 mi SSW 6.9 mph - N/A   Overcast
10:16 AM - - N/A% 29.61 in 10.0 mi SE 6.9 mph - N/A   Overcast
10:36 AM - - N/A% 29.61 in 10.0 mi SE 11.5 mph - N/A   Overcast
10:56 AM - - N/A% 29.61 in 10.0 mi ESE 11.5 mph - N/A   Overcast
11:16 AM - - N/A% 29.63 in 10.0 mi West 8.1 mph - N/A   Overcast
11:36 AM - - N/A% 29.63 in 10.0 mi West 4.6 mph - N/A   Mostly Cloudy
11:56 AM - - N/A% 29.64 in 10.0 mi Calm Calm - N/A   Overcast
12:16 PM - - N/A% 29.64 in 10.0 mi NNE 4.6 mph - N/A   Overcast
12:36 PM - - N/A% 29.64 in 10.0 mi Calm Calm - N/A   Overcast
12:56 PM - - N/A% 29.65 in 10.0 mi SSW 10.4 mph - N/A   Overcast
1:16 PM - - N/A% 29.65 in 10.0 mi South 6.9 mph - N/A   Overcast
1:36 PM - - N/A% 29.65 in 10.0 mi SE 6.9 mph - N/A   Mostly Cloudy
1:56 PM - - N/A% 29.65 in 10.0 mi SSE 10.4 mph - N/A   Mostly Cloudy
2:16 PM - - N/A% 29.66 in 10.0 mi South 8.1 mph - N/A   Mostly Cloudy
2:36 PM - - N/A% 29.66 in 10.0 mi South 6.9 mph - N/A   Overcast
2:56 PM - - N/A% 29.66 in 10.0 mi ESE 4.6 mph - N/A   Mostly Cloudy
3:16 PM - - N/A% 29.67 in 10.0 mi SSE 8.1 mph - N/A   Mostly Cloudy
3:36 PM - - N/A% 29.67 in 10.0 mi South 5.8 mph - N/A   Overcast
3:56 PM - - N/A% 29.67 in 10.0 mi South 5.8 mph - N/A   Overcast
4:16 PM - - N/A% 29.66 in 10.0 mi SE 8.1 mph - N/A   Mostly Cloudy
4:36 PM - - N/A% 29.66 in 10.0 mi ESE 8.1 mph - N/A   Scattered Clouds
4:56 PM - - N/A% 29.67 in 10.0 mi SW 9.2 mph - N/A   Mostly Cloudy
5:16 PM - - N/A% 29.68 in 3.0 mi West 11.5 mph 17.3 mph N/A   Overcast
5:36 PM - - N/A% 29.68 in 1.2 mi Calm Calm - N/A   Overcast
5:56 PM - - N/A% 29.68 in 5.0 mi Calm Calm - N/A   Overcast
6:16 PM - - N/A% 29.66 in 10.0 mi ESE 4.6 mph - N/A   Overcast
6:36 PM - - N/A% 29.66 in 10.0 mi ENE 5.8 mph - N/A   Mostly Cloudy
6:56 PM - - N/A% 29.65 in 10.0 mi ESE 5.8 mph - N/A   Overcast
7:16 PM - - N/A% 29.65 in 9.0 mi Calm Calm - N/A   Overcast
7:36 PM - - N/A% 29.65 in 10.0 mi NW 3.5 mph - N/A   Overcast
7:56 PM - - N/A% 29.65 in 10.0 mi NNW 4.6 mph - N/A   Overcast
8:16 PM - - N/A% 29.65 in 8.0 mi Calm Calm - N/A   Overcast
8:36 PM - - N/A% 29.65 in 6.0 mi Calm Calm - N/A   Overcast
8:56 PM - - N/A% 29.65 in 8.0 mi SSE 5.8 mph - N/A   Overcast
9:16 PM - - N/A% 29.65 in 8.0 mi SSE 5.8 mph - N/A   Overcast
9:36 PM - - N/A% 29.65 in 10.0 mi ESE 6.9 mph - N/A   Overcast
9:56 PM - - N/A% 29.67 in 10.0 mi SSE 6.9 mph - N/A   Overcast
10:16 PM - - N/A% 29.68 in 3.0 mi SSW 8.1 mph - N/A   Overcast
10:36 PM - - N/A% 29.68 in 10.0 mi South 3.5 mph - N/A   Overcast
10:56 PM - - N/A% 29.68 in 9.0 mi Calm Calm - N/A   Overcast
11:16 PM - - N/A% 29.68 in 10.0 mi ENE 4.6 mph - N/A   Overcast
11:36 PM - - N/A% 29.68 in 10.0 mi ESE 8.1 mph - N/A   Mostly Cloudy
11:56 PM - - N/A% 29.68 in 10.0 mi East 9.2 mph - N/A   Overcast